Location: Baix
(44.7118°N, 4.7648°E)
Time: 13:21:37
(UTC+00:00)

Vanguard 2 Rocket - Pass Details

Date: 05 December 2020
Orbit: 554 x 3325 km, 32.9° (Epoch: 23 January)

Event Time Altitude Azimuth Distance (km) Brightness Sun altitude
Rises 02:32:15 0° 179° (S) 5,773 10.9 -47.0°
Reaches altitude 10° 02:38:16 10° 160° (SSE) 5,296 10.8 -46.0°
Maximum altitude 02:46:28 16° 129° (SE) 5,350 11.0 -44.6°
Drops below altitude 10° 02:55:47 10° 100° (E) 6,206 11.7 -42.9°
Sets 03:03:54 0° 83° (E) 7,316 12.4 -41.5°
